Overview Statistics Trail Chart Weather Telemetry Raw packets
 

This is the latest recevied weather packets stored in our database for station/object EA1CLT-10. If no packets are shown the sender has not sent any weather packets the latest 10 day(s).

<< 7 8 9 10 11 12 13 >>
Time Temp. Humidity Pressure Rain* Wind** Luminosity Snow
1788353186 27.22° C 46% 1016.9 hPa - - - -
1788351986 27.22° C 47% 1017.1 hPa - - - -
1788350786 26.67° C 47% 1017.3 hPa - - - -
1788349586 26.67° C 47% 1017.5 hPa - - - -
1788348386 26.11° C 48% 1017.7 hPa - - - -
1788347186 26.11° C 48% 1017.9 hPa - - - -
1788345986 26.11° C 49% 1018 hPa - - - -
1788344786 25.56° C 47% 1018.1 hPa - - - -
1788343586 25.56° C 49% 1018.3 hPa - - - -
1788342386 25.56° C 46% 1018.4 hPa - - - -
1788341186 25.56° C 46% 1018.3 hPa - - - -
1788339993 25° C 46% 1018.3 hPa - - - -
1788338785 25° C 46% 1018.4 hPa - - - -
1788337584 25° C 46% 1018.4 hPa - - - -
1788336384 25° C 46% 1018.3 hPa - - - -
1788335184 25° C 46% 1018.2 hPa - - - -
1788333984 25° C 46% 1018.1 hPa - - - -
1788332784 25° C 46% 1017.7 hPa - - - -
1788331584 25° C 46% 1017.5 hPa - - - -
1788330384 25° C 46% 1017.2 hPa - - - -
1788329184 25° C 46% 1017.2 hPa - - - -
1788327984 25° C 46% 1017.1 hPa - - - -
1788326784 25° C 46% 1017 hPa - - - -
1788325584 25° C 47% 1016.8 hPa - - - -
1788324383 25.56° C 46% 1016.7 hPa - - - -

* Rain since midnight (hover to see other rain measurements)
** Current wind speed in m/s (hover to see current wind gust speed)